TIME,�g��[���C[MJ/h],����[MJ/h],�Ɩ�[MJ/h],�~�[[MJ/h],�①��[MJ/h],��y���[MJ/h],�Ǝ��q��[MJ/h],���̑�[MJ/h],�����G�l���M�[[MJ/h]
2004/3/1 0:00,10.5709,0,0,0.2023,0.2847,0.039,0.0072,2.0411,0
2004/3/1 0:15,11.4418,0,0,0.2184,0.2251,0.042,0.055,1.6033,0
2004/3/1 0:30,5.0043,0,0,0.2179,0.057,0.3174,0.0078,1.3221,0
2004/3/1 0:45,1.49,0,0,0.2297,0.3109,0.398,0.0543,1.6057,0
2004/3/1 1:00,9.9086,0,0,0.2159,0.2241,0.0426,0.0078,0.2457,0
2004/3/1 1:15,10.7104,0,0,0.2157,0.0678,0.0428,0.0524,0.266,0
2004/3/1 1:30,1.49,0,0,0.3902,0.3092,0.0429,0.0079,0.1489,0
2004/3/1 1:45,1.5002,0,0,0.4159,0.2042,0.0432,0.0599,0.1308,0
2004/3/1 2:00,8.0603,0,0,0.1896,0.0897,0.0429,0.0078,0.2193,0
2004/3/1 2:15,9.7531,0,0,0.2242,0.306,0.0431,0.0079,0.2707,0
2004/3/1 2:30,1.5077,0,0,0.2418,0.1983,0.0433,0.0415,0.2494,0
2004/3/1 2:45,1.5191,0,0,0.2563,0.0697,0.0438,0.0554,0.2501,0
2004/3/1 3:00,0.6752,0,0,0.2547,0.308,0.0431,0.0079,0.2611,0
2004/3/1 3:15,10.3998,0,0,0.2539,0.1971,0.0429,0.0078,0.2588,0
2004/3/1 3:30,4.7195,0,0,0.256,0.093,0.0432,0.0524,0.2563,0
2004/3/1 3:45,1.4067,0,0,0.2544,0.3043,0.0435,0.0079,0.2719,0
2004/3/1 4:00,0,0,0,0.2527,0.3213,0.0435,0.0566,0.3011,0
2004/3/1 4:15,0.4131,0,0,0.2576,0.3034,0.0435,0.0078,0.3527,0
2004/3/1 4:30,9.5537,0,0,0.2559,0.4192,0.0435,0.052,0.2583,0
2004/3/1 4:45,5.7576,0,0,0.2536,0.5733,0.0433,0.0079,0.2804,0
2004/3/1 5:00,0.0006,0,0,0.2608,0.4612,0.0435,0.0497,0.2868,0
2004/3/1 5:15,0.6592,0,0,0.2553,0.4804,0.0432,0.0079,0.2732,0
2004/3/1 5:30,1.4852,0,0,0.2612,0.4144,0.0429,0.0622,0.2644,0
2004/3/1 5:45,1.4475,0,0,0.2565,0.4723,0.0428,0.0078,0.2238,0
2004/3/1 6:00,9.9792,0,0,0.2565,0.3825,0.0423,0.0078,0.2481,0
2004/3/1 6:15,2.5707,0,0,0.2583,0.0783,0.0428,0.0564,0.255,0
2004/3/1 6:30,1.4818,0,0,0.2569,0.2668,0.0431,0.0078,0.2513,0
2004/3/1 6:45,0.0827,0,0,0.2569,0.2902,0.0429,0.0611,0.2867,0
2004/3/1 7:00,9.8762,0,0,0.5819,0.1416,0.4126,0.0078,0.9897,0
2004/3/1 7:15,11.2499,0,0,5.4137,0.2693,0.437,0.0582,-4.3358,0
2004/3/1 7:30,11.1891,0,0,0.1112,0.2938,0.4121,0.0078,1.0738,0
2004/3/1 7:45,11.319,0,0,1.0259,0.1837,0.4126,0.0078,1.0528,0
2004/3/1 8:00,11.3545,0,0,0.9949,0.2248,0.4274,0.0554,1.1519,0
2004/3/1 8:15,0.3129,0,0,0.2569,0.3034,0.4231,0.0714,1.8318,0
2004/3/1 8:30,0.0007,0,0,0.6862,0.2789,0.3918,0.0082,1.3732,0
2004/3/1 8:45,0.0003,0,0,0.1436,0.1408,0.4128,0.0557,1.2871,0
2004/3/1 9:00,0.0006,0,0,0.1503,0.3034,0.4283,0.0079,1.3216,0
2004/3/1 9:15,0.0003,0,0,0.1483,0.2667,0.2808,0.0513,1.2197,0
2004/3/1 9:30,0.0006,0,0,0.15,0.0305,0.0422,0.0078,0.8281,0
2004/3/1 9:45,0,0,0,0.1519,0.2834,0.0419,0.056,0.8561,0
2004/3/1 10:00,0,0,0,0.148,0.2723,0.0419,0.0078,0.954,0
2004/3/1 10:15,0.0003,0,0,0.1515,0.0914,0.0419,0.0508,1.0581,0
2004/3/1 10:30,0,0,0,0.1475,0.308,0.0419,0.0112,1.0453,0
2004/3/1 10:45,0,0,0,0.1539,0.2824,0.0419,0.0564,1.4812,0
2004/3/1 11:00,0,0,0,0.1516,0.1017,0.0423,0.0078,1.6236,0
2004/3/1 11:15,0,0,0,0.1477,0.3066,0.0428,0.059,2.3836,0
2004/3/1 11:30,0,0,0,0.145,0.1604,0.0426,0.0078,1.8504,0
2004/3/1 11:45,0,0,0,0.704,0.2035,0.0426,0.0521,1.2279,0
2004/3/1 12:00,0,0,0,0.1492,0.2955,0.3995,0.0079,1.2959,0
2004/3/1 12:15,0,0,0,0.1513,0.167,0.4185,0.0579,1.4869,0
2004/3/1 12:30,0,0,0,0.1511,0.1758,0.4149,0.0078,1.5228,0
2004/3/1 12:45,0,0,0,0.6821,0.2981,0.4164,0.0549,1.5863,0
2004/3/1 13:00,0,0,0,0.1493,0.2271,0.3923,0.0078,1.5708,0
2004/3/1 13:15,0,0,0,0.1498,0.1932,0.2789,0.0603,1.5538,0
2004/3/1 13:30,0,0,0,0.1503,0.2956,0.0435,0.0079,1.5771,0
2004/3/1 13:45,0,0,0,0.1509,0.1022,0.0433,0.0546,1.5434,0
2004/3/1 14:00,0,0,0,0.1499,0.3067,0.0435,0.0078,1.5942,0
2004/3/1 14:15,0,0,0,0.1526,0.2989,0.0432,0.0544,1.632,0
2004/3/1 14:30,0,0,0,0.147,0.0982,0.0423,0.0078,1.527,0
2004/3/1 14:45,0,0,0,0.1482,0.3089,0.0426,0.0553,0.9671,0
2004/3/1 15:00,0,0,0,0.149,0.312,0.0422,0.0078,0.9356,0
2004/3/1 15:15,0,0,0,0.1506,0.0969,0.0425,0.0537,0.9314,0
2004/3/1 15:30,0,0,0,0.1492,0.3056,0.1571,0.0078,1.0577,0
2004/3/1 15:45,0,0,0,0.1452,0.3126,0.1666,0.0539,1.2688,0
2004/3/1 16:00,0,0,0,0.1477,0.0968,0.1626,0.0078,1.5651,0
2004/3/1 16:15,0,0,0,0.1502,0.3034,0.1598,0.0541,1.7155,0
2004/3/1 16:30,0,0,0,0.1506,0.3178,0.1583,0.0078,1.7018,0
2004/3/1 16:45,0,0,0,0.1473,0.1747,0.1623,0.0576,1.7617,0
2004/3/1 17:00,0,0,0,0.1801,0.1702,0.5856,0.0078,1.8904,0
2004/3/1 17:15,0,0,0,0.5616,0.2935,0.5747,0.0567,1.8406,0
2004/3/1 17:30,0,0,0,0.1525,0.175,0.5401,0.0078,1.7821,0
2004/3/1 17:45,0,0,0,0.1506,0.2305,0.5226,0.055,1.6675,0
2004/3/1 18:00,0,0,0,0.1522,0.2726,0.2,0.0078,1.705,0
2004/3/1 18:15,0,0,0,0.1498,0.1117,0.1983,0.0526,1.7546,0
2004/3/1 18:30,0,0,0,0.1511,0.2989,0.1984,0.0078,1.9132,0
2004/3/1 18:45,0,0,0,0.1503,0.149,0.198,0.0554,1.8899,0
2004/3/1 19:00,0,0,0,0.1477,0.1994,0.1979,0.0078,1.903,0
2004/3/1 19:15,0,0,0,4.0061,0.2717,0.1979,0.056,2.0861,0
2004/3/1 19:30,0,0,0,4.8652,0.0844,0.1976,0.0078,2.6558,0
2004/3/1 19:45,0,0,0,0.6983,0.3044,0.4638,0.0544,2.3194,0
2004/3/1 20:00,0,0,0,0.1369,0.1145,0.5947,0.036,2.2084,0
2004/3/1 20:15,0,0,0,0.1513,0.2773,0.5819,0.0311,2.0301,0
2004/3/1 20:30,0,0,0,0.1525,0.3064,0.6136,0.0078,2.1177,0
2004/3/1 20:45,0,0,0,0.1526,0.0904,0.2438,0.0549,2.4072,0
2004/3/1 21:00,0,0,0,0.1555,0.305,0.2003,0.0549,2.2653,0
2004/3/1 21:15,0,0,0,0.1577,0.2163,0.2009,0.0078,2.1259,0
2004/3/1 21:30,0,0,0,0.1511,0.1374,0.1997,0.0579,2.1933,0
2004/3/1 21:45,0,0,0,0.1552,0.2955,0.2002,0.0081,2.129,0
2004/3/1 22:00,0,0,0,0.1531,0.0906,0.1135,0.057,1.7209,0
2004/3/1 22:15,3.4541,0,0,0.1551,0.2935,0.0422,0.0078,0.654,0
2004/3/1 22:30,11.2473,0,0,1.2885,0.1678,0.307,0.0543,1.1814,0
2004/3/1 22:45,11.2582,0,0,0.8227,0.2369,0.4042,0.3475,1.3147,0
2004/3/1 23:00,11.1875,0,0,0.1531,0.29,0.4239,2.1136,1.3078,0
2004/3/1 23:15,11.215,0,0,0.1489,0.1653,0.4173,2.0583,1.3834,0
2004/3/1 23:30,11.2415,0,0,0.4605,0.1902,0.4046,0.682,1.5012,0
2004/3/1 23:45,11.3708,0,0,0.1483,0.2713,0.415,0.0079,1.7067,0
2004/3/2 0:00,11.4288,0,0,0.1531,0.1102,0.4128,0.0572,1.6677,0
2004/3/2 0:15,11.4543,0,0,0.1488,0.2981,0.4598,0.0079,1.6105,0
2004/3/2 0:30,11.58,0,0,0.1549,0.2857,0.4262,0.0523,1.3699,0
2004/3/2 0:45,11.4039,0,0,0.1532,0.1143,0.088,0.0078,0.301,0
2004/3/2 1:00,11.3845,0,0,0.1515,0.3047,0.0873,0.0598,0.3063,0
2004/3/2 1:15,11.4591,0,0,0.1515,0.2478,0.0874,0.0079,0.3167,0
2004/3/2 1:30,11.4686,0,0,0.1535,0.1096,0.0874,0.0562,0.306,0
2004/3/2 1:45,11.5327,0,0,0.1542,0.3038,0.0878,0.0078,0.3059,0
2004/3/2 2:00,11.5256,0,0,0.15,0.1421,0.0876,0.0543,0.3021,0
2004/3/2 2:15,11.4067,0,0,0.1536,0.2532,0.0874,0.0078,0.3005,0
2004/3/2 2:30,11.46,0,0,0.1477,0.2334,0.0874,0.0563,0.3146,0
2004/3/2 2:45,11.5193,0,0,0.1565,0.1623,0.0878,0.0079,0.3135,0
2004/3/2 3:00,11.59,0,0,0.1529,0.292,0.0877,0.0596,0.3067,0
2004/3/2 3:15,11.6351,0,0,0.1552,0.1221,0.088,0.0079,0.3087,0
2004/3/2 3:30,11.6944,0,0,0.1489,0.2782,0.088,0.0533,0.3177,0
2004/3/2 3:45,11.6842,0,0,0.1552,0.3116,0.088,0.0577,0.3174,0
2004/3/2 4:00,11.4219,0,0,0.1526,0.2997,0.0873,0.0078,0.3159,0
2004/3/2 4:15,11.2932,0,0,0.1531,0.4339,0.0871,0.0556,0.2978,0
2004/3/2 4:30,11.569,0,0,0.1506,0.5636,0.0877,0.0078,0.3066,0
2004/3/2 4:45,11.5871,0,0,0.1529,0.4437,0.0878,0.0575,0.3158,0
2004/3/2 5:00,11.4807,0,0,0.1552,0.4696,0.0878,0.0078,0.3751,0
2004/3/2 5:15,11.4568,0,0,0.1489,0.4494,0.0873,0.0583,0.3086,0
2004/3/2 5:30,11.3469,0,0,0.1528,0.2992,0.0871,0.0078,0.304,0
2004/3/2 5:45,11.2955,0,0,0.1532,0.1282,0.0871,0.0586,0.3047,0
2004/3/2 6:00,11.3276,0,0,0.6301,0.2951,0.0871,0.0078,0.378,0
2004/3/2 6:15,11.325,0,0,1.1722,0.253,0.0874,0.0577,0.3154,0
2004/3/2 6:30,11.3476,0,0,0.7741,0.1702,0.088,0.0078,0.0301,0
2004/3/2 6:45,11.3106,0,0,0.3558,0.2928,0.0877,0.0562,0.3408,0
2004/3/2 7:00,11.2494,0,0,0.2943,0.1552,0.3378,0.1248,0.8086,0
2004/3/2 7:15,11.2398,0,0,0.1691,0.2549,0.4404,0.8561,1.2721,0
2004/3/2 7:30,11.3138,0,0,2.4,0.3024,0.4208,0.5787,1.0656,0
2004/3/2 7:45,11.5249,0,0,0.2004,0.1244,0.4272,0.6348,1.0107,0
2004/3/2 8:00,11.3662,0,0,0.7832,0.2866,0.4271,0.3875,1.1585,0
2004/3/2 8:15,0.3637,0,0,1.7624,0.2988,0.4205,0.0727,1.7186,0
2004/3/2 8:30,0,0,0,0.1277,0.1045,0.4084,0.0513,1.2578,0
2004/3/2 8:45,0,0,0,0.168,0.3024,0.4062,0.0582,1.1465,0
2004/3/2 9:00,0,0,0,0.2061,0.2411,0.4399,0.0082,1.1389,0
2004/3/2 9:15,0,0,0,0.229,0.1698,0.3321,0.0602,0.923,0
2004/3/2 9:30,0,0,0,0.2366,0.2701,0.0428,0.0082,0.7168,0
2004/3/2 9:45,0,0,0,0.2344,0.1138,0.0431,0.0554,0.2798,0
2004/3/2 10:00,0,0,0,0.2494,0.2994,0.0431,0.0082,0.4861,0
2004/3/2 10:15,0,0,0,0.2295,0.1498,0.0429,0.0579,0.7229,0
2004/3/2 10:30,0,0,0,0.2333,0.238,0.0425,0.0514,0.8365,0
2004/3/2 10:45,0,0,0,0.2352,0.2465,0.0428,0.0078,0.8513,0
2004/3/2 11:00,0,0,0,0.2389,0.1411,0.0425,0.0586,0.4723,0
2004/3/2 11:15,0,0,0,0.2359,0.2899,0.0425,0.0078,0.4501,0
2004/3/2 11:30,0,0,0,0.2328,0.1246,0.0425,0.058,0.2864,0
2004/3/2 11:45,0,0,0,0.2359,0.2724,0.0425,0.0078,0.2688,0
2004/3/2 12:00,0,0,0,0.2363,0.069,0.0428,0.0589,0.2645,0
2004/3/2 12:15,0,0,0,0.2318,0.3018,0.0514,0.0078,0.3063,0
2004/3/2 12:30,0,0,0,0.2375,0.3349,0.2589,0.0588,0.482,0
2004/3/2 12:45,0,0,0,0.6489,0.1156,0.4255,0.0078,0.6176,0
2004/3/2 13:00,0,0,0,4.5456,0.2961,0.4836,0.054,1.4236,0
2004/3/2 13:15,0,0,0,0.3018,0.2015,0.492,0.0079,1.266,0
2004/3/2 13:30,0,0,0,0.234,0.2084,0.4438,0.0465,1.262,0
2004/3/2 13:45,0,0,0,0.372,0.2933,0.4176,0.057,3.1579,0
2004/3/2 14:00,0,0,0,0.2399,0.2117,0.4218,0.0078,1.2548,0
2004/3/2 14:15,0,0,0,0.258,0.1918,0.0959,0.0541,1.2881,0
2004/3/2 14:30,0,0,0,0.2618,0.3054,0.0429,0.041,1.2483,0
2004/3/2 14:45,0,0,0,0.2566,0.1459,0.0432,0.0464,2.1012,0
2004/3/2 15:00,0,0,0,0.2611,0.2484,0.0429,0.0577,0.912,0
2004/3/2 15:15,0,0,0,0.2547,0.2896,0.1956,0.0079,1.2364,0
2004/3/2 15:30,0,0,0,0.2496,0.104,0.4252,0.0534,1.7868,0
2004/3/2 15:45,0,0,0,2.4559,0.2994,0.445,0.0557,1.746,0
2004/3/2 16:00,0,0,0,1.6044,0.2244,0.4706,0.0078,1.5091,0
2004/3/2 16:15,0,0,0,1.2144,0.1981,0.4522,0.0573,1.5248,0
2004/3/2 16:30,0,0,0,0.1473,0.3061,0.4258,0.0078,1.5784,0
2004/3/2 16:45,0,0,0,0.7122,0.362,0.2651,0.0544,2.1521,0
2004/3/2 17:00,0,0,0,0.9651,0.0744,0.2133,0.0078,2.1812,0
2004/3/2 17:15,0,0,0,1.6989,0.2621,0.2087,0.0517,2.0089,0
2004/3/2 17:30,0,0,0,0.5062,0.3246,0.2101,0.0078,1.9462,0
2004/3/2 17:45,0,0,0,0.1943,0.1208,0.2048,0.0537,2.0399,0
2004/3/2 18:00,0,0,0,0.1858,0.285,0.203,0.0079,2.2098,0
2004/3/2 18:15,0,0,0,4.2797,0.3145,0.2023,0.06,2.3465,0
2004/3/2 18:30,0,0,0,4.811,0.0948,0.2006,0.0115,2.6428,0
2004/3/2 18:45,0,0,0,6.8376,0.2978,0.2006,0.0554,2.231,0
2004/3/2 19:00,0,0,0,2.4278,0.326,0.2006,0.0564,2.0069,0
2004/3/2 19:15,0,0,0,0.4454,0.0917,0.1878,0.0076,2.0111,0
2004/3/2 19:30,0,0,0,0.269,0.2062,0.2758,0.0564,2.0238,0
2004/3/2 19:45,0,0,0,0.429,0.3138,0.5705,0.0081,2.0151,0
2004/3/2 20:00,0,0,0,0.4962,0.2516,0.5844,0.0501,2.0784,0
2004/3/2 20:15,0,0,0,0.1469,0.1745,0.3776,0.0078,2.4421,0
2004/3/2 20:30,0,0,0,0.1472,0.3048,0.0423,0.0526,2.562,0
2004/3/2 20:45,0,0,0,0.1434,0.2075,0.0423,0.0078,2.4876,0
2004/3/2 21:00,0,0,0,0.1469,0.1839,0.0423,0.0588,2.5357,0
2004/3/2 21:15,0,0,0,0.1434,0.2809,0.0425,0.0079,2.538,0
2004/3/2 21:30,0,0,0,0.1446,0.1227,0.0423,0.0556,2.5249,0
2004/3/2 21:45,0,0,0,0.1479,0.2971,0.0429,0.0518,2.6188,0
2004/3/2 22:00,0,0,0,0.1476,0.3064,0.0432,0.0082,2.6379,0
2004/3/2 22:15,0.3394,0,0,0.1493,0.1153,0.0433,0.0552,1.579,0
2004/3/2 22:30,1.5332,0,0,0.1476,0.2985,0.0431,0.0084,0.9204,0
2004/3/2 22:45,11.3884,0,0,0.5638,0.2877,0.0426,0.0569,0.7703,0
2004/3/2 23:00,11.3596,0,0,0.3354,0.1257,0.0426,0.0084,1.2462,0
2004/3/2 23:15,11.2195,0,0,0.1515,0.3046,0.0425,0.0534,1.2771,0
2004/3/2 23:30,11.1701,0,0,0.1476,0.1218,0.3666,0.0082,1.9287,0
2004/3/2 23:45,11.2087,0,0,0.1452,0.257,0.4156,0.0576,1.9738,0
2004/3/3 0:00,11.324,0,0,0.1475,0.2151,0.4039,0.0079,2.1449,0
2004/3/3 0:15,11.4555,0,0,0.1499,0.1348,0.4113,0.0554,1.8629,0
2004/3/3 0:30,11.4744,0,0,0.1397,0.2952,0.4274,0.0078,1.2462,0
2004/3/3 0:45,11.3437,0,0,0.1457,0.2347,0.4167,0.057,0.6345,0
2004/3/3 1:00,11.3744,0,0,0.149,0.122,0.2146,0.0078,0.455,0
2004/3/3 1:15,11.4042,0,0,0.1463,0.2942,0.0426,0.0576,0.376,0
2004/3/3 1:30,11.4903,0,0,0.1446,0.0451,0.0428,0.0079,0.2969,0
2004/3/3 1:45,11.4348,0,0,0.1489,0.3046,0.0426,0.0539,0.3076,0
2004/3/3 2:00,11.551,0,0,0.1475,0.1793,0.0431,0.0589,0.3083,0
2004/3/3 2:15,11.5334,0,0,0.1436,0.1896,0.0431,0.0078,0.302,0
2004/3/3 2:30,11.4926,0,0,0.1485,0.2834,0.0426,0.0553,0.3146,0
2004/3/3 2:45,11.5625,0,0,0.1475,0.0922,0.0431,0.0079,0.3017,0
2004/3/3 3:00,11.6205,0,0,0.1466,0.2965,0.0433,0.0582,0.3005,0
2004/3/3 3:15,11.644,0,0,0.1496,0.309,0.0435,0.0078,0.3092,0
2004/3/3 3:30,11.4997,0,0,0.1472,0.2465,0.0426,0.055,0.312,0
2004/3/3 3:45,11.5538,0,0,0.1472,0.4928,0.0431,0.0078,0.3145,0
2004/3/3 4:00,11.5805,0,0,0.1482,0.564,0.0433,0.0553,0.3711,0
2004/3/3 4:15,11.6189,0,0,0.1498,0.4333,0.0431,0.0079,0.3145,0
2004/3/3 4:30,11.6385,0,0,0.1464,0.4499,0.0433,0.0513,0.3174,0
2004/3/3 4:45,11.6209,0,0,0.1503,0.4097,0.0435,0.0079,0.3171,0
2004/3/3 5:00,11.607,0,0,0.1477,0.4519,0.0432,0.053,0.3181,0
2004/3/3 5:15,11.5453,0,0,0.1495,0.1702,0.0432,0.0079,0.3119,0
2004/3/3 5:30,11.4827,0,0,0.1475,0.1542,0.0426,0.0536,0.2925,0
2004/3/3 5:45,11.4229,0,0,0.1463,0.289,0.0426,0.05,0.3257,0
2004/3/3 6:00,11.2946,0,0,0.1506,0.1223,0.0422,0.0078,0.2879,0
2004/3/3 6:15,11.3967,0,0,0.1469,0.2615,0.0429,0.0559,0.3011,0
2004/3/3 6:30,11.3191,0,0,0.1503,0.3063,0.0422,0.0078,0.3108,0
2004/3/3 6:45,11.3206,0,0,0.1505,0.2115,0.0425,0.0576,0.3325,0
2004/3/3 7:00,11.2015,0,0,0.1475,0.1286,0.1683,0.0078,0.4912,0
2004/3/3 7:15,11.2213,0,0,2.0982,0.3004,0.4329,0.0569,1.1595,0
2004/3/3 7:30,11.1421,0,0,1.2574,0.1804,0.4141,0.418,1.0908,0
2004/3/3 7:45,11.1449,0,0,1.7924,0.2184,0.4221,2.111,1.1965,0
2004/3/3 8:00,11.2576,0,0,0.1339,0.2962,0.4355,2.1982,1.2397,0
2004/3/3 8:15,0.3738,0,0,0.8194,0.0929,0.4202,1.3683,1.3978,0
2004/3/3 8:30,0,0,0,0.336,0.2988,0.401,2.3206,1.168,0
2004/3/3 8:45,0,0,0,0.1534,0.2331,0.3989,2.7217,1.1278,0
2004/3/3 9:00,0,0,0,0.1524,0.1608,0.4346,1.029,1.169,0
2004/3/3 9:15,0,0,0,0.1542,0.2632,0.2422,0.0552,0.9003,0
2004/3/3 9:30,0,0,0,0.1473,0.1292,0.0423,0.0582,0.4854,0
2004/3/3 9:45,0,0,0,0.1561,0.2889,0.0422,0.0078,0.3259,0
2004/3/3 10:00,0,0,0,0.1516,0.3123,0.0425,0.0537,0.2604,0
2004/3/3 10:15,0,0,0,0.1521,0.1053,0.0428,0.0078,0.2451,0
2004/3/3 10:30,0,0,0,0.1495,0.2925,0.0423,0.0556,0.6175,0
2004/3/3 10:45,0,0,0,0.1505,0.2537,0.0524,0.0078,0.6444,0
2004/3/3 11:00,0,0,0,0.1502,0.1433,0.1804,0.059,0.6775,0
2004/3/3 11:15,0,0,0,0.1521,0.2873,0.1738,0.0078,0.6846,0
2004/3/3 11:30,0,0,0,0.1526,0.0909,0.0658,0.0547,0.2949,0
2004/3/3 11:45,0,0,0,0.1519,0.2965,0.0429,0.0078,0.2591,0
2004/3/3 12:00,0,0,0,0.1498,0.1571,0.0429,0.0552,0.2521,0
2004/3/3 12:15,0,0,0,0.1488,0.2497,0.0517,0.0516,0.2576,0
2004/3/3 12:30,0,0,0,0.1528,0.1312,0.0431,0.0078,0.2628,0
2004/3/3 12:45,0,0,0,0.1498,0.2341,0.0429,0.0537,0.2575,0
2004/3/3 13:00,0,0,0,0.1493,0.2372,0.0433,0.0079,0.2691,0
2004/3/3 13:15,0,0,0,0.6932,0.1812,0.0431,0.0569,0.4432,0
2004/3/3 13:30,0,0,0,0.6034,0.3056,0.1754,0.0078,0.7039,0
2004/3/3 13:45,0,0,0,0.1437,0.2494,0.4529,0.0559,0.8761,0
2004/3/3 14:00,0,0,0,0.148,0.1773,0.3663,0.0078,0.8749,0
2004/3/3 14:15,0,0,0,0.1511,0.3056,0.0884,0.0541,1.2108,0
2004/3/3 14:30,0,0,0,0.1512,0.234,0.3645,0.0327,1.1753,0
2004/3/3 14:45,0,0,0,0.1466,0.1767,0.4157,0.0312,1.1236,0
2004/3/3 15:00,0,0,0,0.149,0.3123,0.4569,0.0559,1.1082,0
2004/3/3 15:15,0,0,0,0.1482,0.0791,0.1882,0.0078,1.137,0
2004/3/3 15:30,0,0,0,0.1528,0.2915,0.0884,0.0586,1.2443,0
2004/3/3 15:45,0,0,0,0.1482,0.193,0.0881,0.0078,1.0905,0
2004/3/3 16:00,0,0,0,0.1492,0.2111,0.0881,0.0563,1.356,0
2004/3/3 16:15,0,0,0,0.1477,0.2776,0.0874,0.0078,1.226,0
2004/3/3 16:30,0,0,0,0.149,0.1214,0.0867,0.0482,1.4669,0
2004/3/3 16:45,0,0,0,0.1488,0.3023,0.0865,0.0078,1.5044,0
2004/3/3 17:00,0,0,0,0.1492,0.3404,0.0867,0.053,1.9679,0
2004/3/3 17:15,0,0,0,1.1874,0.0765,0.0867,0.0078,2.05,0
2004/3/3 17:30,0,0,0,0.8918,0.2916,0.0867,0.0511,1.6644,0
2004/3/3 17:45,0,0,0,0.1528,0.3216,0.0867,0.0082,1.8958,0
2004/3/3 18:00,0,0,0,0.1486,0.0719,0.0861,0.0497,2.0262,0
2004/3/3 18:15,0,0,0,0.1485,0.3126,0.0865,0.0539,2.065,0
2004/3/3 18:30,0,0,0,1.0104,0.3303,0.0863,0.0078,2.1092,0
2004/3/3 18:45,0,0,0,4.3131,0.1113,0.1956,0.0523,2.2175,0
2004/3/3 19:00,0,0,0,2.4769,0.2906,0.221,0.0078,2.1308,0
2004/3/3 19:15,0,0,0,1.1127,0.2604,0.2182,0.0539,2.5017,0
2004/3/3 19:30,0,0,0,0.1464,0.1535,0.2166,0.0078,2.34,0
2004/3/3 19:45,0,0,0,0.6339,0.3023,0.202,0.0536,2.2257,0
2004/3/3 20:00,0,0,0,1.1928,0.3623,0.1993,0.0078,2.3538,0
2004/3/3 20:15,0,0,0,0.4651,0.1087,0.199,0.0573,2.3358,0
2004/3/3 20:30,0,0,0,0.1485,0.2864,0.1994,0.0079,2.3741,0
2004/3/3 20:45,0,0,0,0.1423,0.3315,0.1994,0.057,2.481,0
2004/3/3 21:00,0,0,0,0.149,0.1503,0.1989,0.0081,2.5947,0
2004/3/3 21:15,0,0,0,0.1472,0.2337,0.1994,0.0521,3.6724,0
2004/3/3 21:30,0,0,0,0.1475,0.3188,0.1979,0.0076,2.9065,0
2004/3/3 21:45,0,0,0,0.1446,0.1279,0.2023,0.0521,2.0609,0
2004/3/3 22:00,0,0,0,0.1493,0.2557,0.2022,0.0577,1.8383,0
2004/3/3 22:15,0.327,0,0,0.146,0.3207,0.4406,0.0078,2.0036,0
2004/3/3 22:30,1.4651,0,0,0.7037,0.1668,0.5579,0.0593,2.0964,0
2004/3/3 22:45,1.4649,0,0,0.1441,0.2377,0.5615,0.0078,2.3167,0
2004/3/3 23:00,1.4609,0,0,0.1562,0.324,0.5638,0.0507,2.2656,0
2004/3/3 23:15,1.4492,0,0,0.1666,0.163,0.5638,0.0079,2.1977,0
2004/3/3 23:30,1.4409,0,0,0.156,0.2189,0.5511,0.0497,2.1684,0
2004/3/3 23:45,1.4659,0,0,0.1492,0.3129,0.5609,0.0079,2.3458,0
2004/3/4 0:00,4.08,0,0,0.1506,0.2192,0.5738,0.0554,2.0088,0
2004/3/4 0:15,11.4211,0,0,1.9966,0.2055,0.5728,0.0079,2.0739,0
2004/3/4 0:30,11.5564,0,0,0.0262,0.3135,0.5571,0.0492,1.6939,0
2004/3/4 0:45,11.3923,0,0,0.073,0.2071,0.1714,0.0566,0.5589,0
2004/3/4 1:00,11.3648,0,0,0.1125,0.2101,0.087,0.0078,0.3347,0
2004/3/4 1:15,11.4196,0,0,0.1423,0.3054,0.087,0.057,0.3462,0
2004/3/4 1:30,11.4568,0,0,0.1459,0.1014,0.087,0.0079,0.3457,0
2004/3/4 1:45,11.4814,0,0,0.1524,0.3017,0.0871,0.0543,0.342,0
2004/3/4 2:00,11.5186,0,0,0.1477,0.1778,0.0873,0.0078,0.3372,0
2004/3/4 2:15,11.4941,0,0,0.1522,0.2196,0.0873,0.0616,0.3655,0
2004/3/4 2:30,11.5268,0,0,0.1513,0.2857,0.0873,0.0078,0.3568,0
2004/3/4 2:45,11.6034,0,0,0.1536,0.1261,0.0876,0.057,0.3528,0
2004/3/4 3:00,11.6785,0,0,0.1473,0.2988,0.0877,0.0078,0.3568,0
2004/3/4 3:15,11.6231,0,0,0.1508,0.3246,0.0876,0.0559,0.3737,0
2004/3/4 3:30,11.6044,0,0,0.1508,0.2379,0.0874,0.0079,0.3462,0
2004/3/4 3:45,11.6209,0,0,0.1505,0.5544,0.0874,0.0553,0.3558,0
2004/3/4 4:00,11.6685,0,0,0.1538,0.5592,0.0876,0.0079,0.3711,0
2004/3/4 4:15,11.4761,0,0,0.1531,0.4467,0.0873,0.0539,0.3627,0
2004/3/4 4:30,11.4903,0,0,0.1469,0.4537,0.0871,0.0078,0.3633,0
2004/3/4 4:45,11.4876,0,0,0.1541,0.4497,0.0871,0.0562,0.3584,0
2004/3/4 5:00,11.4494,0,0,0.1456,0.4594,0.0871,0.0078,0.3502,0
2004/3/4 5:15,11.37,0,0,0.1548,0.2064,0.0867,0.0513,0.338,0
2004/3/4 5:30,11.2886,0,0,0.1496,0.1489,0.0865,0.0524,0.341,0
2004/3/4 5:45,11.335,0,0,0.1532,0.2933,0.0867,0.0078,0.3414,0
2004/3/4 6:00,11.2671,0,0,0.5802,0.2072,0.0865,0.0553,0.4232,0
2004/3/4 6:15,11.3541,0,0,1.24,0.1924,0.087,0.0078,0.432,0
2004/3/4 6:30,11.3079,0,0,1.0306,0.3125,0.087,0.05,0.2997,0
2004/3/4 6:45,11.3288,0,0,0.3547,0.3534,0.3342,0.0078,0.8781,0
2004/3/4 7:00,11.196,0,0,1.3967,0.0553,0.4166,0.0557,1.7384,0
2004/3/4 7:15,11.0868,0,0,4.1429,0.2825,0.4376,0.0079,1.4445,0
2004/3/4 7:30,11.4096,0,0,1.1556,0.3328,0.4097,1.6698,1.1784,0
2004/3/4 7:45,10.5597,0,0,0.398,0.1061,0.4147,2.1475,1.2606,0
2004/3/4 8:00,1.4736,0,0,0.1827,0.292,0.4272,1.3319,1.2056,0
2004/3/4 8:15,0.1624,0,0,0.1705,0.2586,0.4314,0.0554,1.0692,0
2004/3/4 8:30,0,0,0,0.2006,0.1392,0.4048,0.0079,1.2858,0
2004/3/4 8:45,0,0,0,0.2167,0.2962,0.4049,0.0523,1.4327,0
2004/3/4 9:00,0,0,0,0.2229,0.2035,0.4203,0.0078,1.3602,0
2004/3/4 9:15,0,0,0,0.3934,0.1591,0.4065,0.0541,1.2573,0
2004/3/4 9:30,0,0,0,0.8029,0.2981,0.1813,0.053,1.2989,0
2004/3/4 9:45,0,0,0,0.2244,0.1139,0.1744,0.0079,1.3136,0
2004/3/4 10:00,0,0,0,0.228,0.2893,0.1724,0.0553,1.3611,0
2004/3/4 10:15,0,0,0,0.2245,0.1896,0.1708,0.0079,1.2884,0
2004/3/4 10:30,0,0,0,0.2262,0.2003,0.1636,0.0567,1.279,0
2004/3/4 10:45,0,0,0,0.2195,0.2936,0.5344,0.0079,1.2843,0
2004/3/4 11:00,0,0,0,0.2277,0.124,0.6036,0.0505,1.1886,0
2004/3/4 11:15,0,0,0,0.2172,0.2799,0.5977,0.0078,1.1222,0
2004/3/4 11:30,0,0,0,0.2258,0.2157,0.6003,0.0552,1.8382,0
2004/3/4 11:45,0,0,0,0.2249,0.1908,0.6178,0.0078,1.3591,0
2004/3/4 12:00,0,0,0,0.2228,0.2929,0.6146,0.0569,1.5093,0
2004/3/4 12:15,0,0,0,0.2202,0.2553,0.3113,0.0559,1.1295,0
2004/3/4 12:30,0,0,0,0.2216,0.1727,0.2043,0.0078,1.1053,0
2004/3/4 12:45,0,0,0,0.2238,0.2928,0.2046,0.0592,2.2038,0
2004/3/4 13:00,0,0,0,0.2219,0.2452,0.2046,0.0079,1.1749,0
2004/3/4 13:15,0,0,0,0.217,0.0696,0.2039,0.0498,1.1094,0
2004/3/4 13:30,0,0,0,1.1746,0.3109,0.2035,0.0081,1.21,0
2004/3/4 13:45,0,0,0,0.2822,0.324,0.2029,0.0528,1.3379,0
2004/3/4 14:00,0,0,0,0.986,0.0825,0.2035,0.0079,1.243,0
2004/3/4 14:15,0,0,0,2.3435,0.3096,0.4404,0.0541,1.3556,0
2004/3/4 14:30,0,0,0,0.04,0.3299,0.6134,0.0078,1.4315,0
2004/3/4 14:45,0,0,0,0.0841,0.0864,0.6093,0.0562,1.4682,0
2004/3/4 15:00,0,0,0,0.1067,0.3079,0.6129,0.0078,1.4432,0
2004/3/4 15:15,0,0,0,0.1161,0.1575,0.6106,0.0531,1.4219,0
2004/3/4 15:30,0,0,0,0.1184,0.2288,0.6065,0.0079,1.6665,0
2004/3/4 15:45,0,0,0,0.1181,0.291,0.6121,0.0546,1.8701,0
2004/3/4 16:00,0,0,0,0.1156,0.2193,0.6173,0.0078,1.8755,0
2004/3/4 16:15,0,0,0,0.1194,0.2065,0.6126,0.0546,1.9502,0
2004/3/4 16:30,0,0,0,0.1187,0.2916,0.2591,0.0078,1.849,0
2004/3/4 16:45,0,0,0,0.1184,0.1967,0.1977,0.057,1.6381,0
2004/3/4 17:00,0,0,0,0.1204,0.2151,0.197,0.0078,1.8717,0
2004/3/4 17:15,0,0,0,0.1202,0.2521,0.1999,0.0567,1.9256,0
2004/3/4 17:30,0,0,0,0.1182,0.1217,0.1984,0.0078,1.6538,0
2004/3/4 17:45,0,0,0,0.1168,0.2987,0.1986,0.0511,1.6442,0
2004/3/4 18:00,0,0,0,0.6553,0.268,0.4357,0.0238,2.1753,0
2004/3/4 18:15,0,0,0,0.3731,0.1313,0.5106,0.0449,2.7888,0
2004/3/4 18:30,0,0,0,3.3254,0.3017,0.502,0.0078,3.0099,0
2004/3/4 18:45,0,0,0,6.7179,0.3136,0.5008,0.0491,2.9431,0
2004/3/4 19:00,0,0,0,0.5076,0.0906,0.501,0.055,1.9508,0
2004/3/4 19:15,0,0,0,0.1459,0.3079,0.5011,0.0078,1.9362,0
2004/3/4 19:30,0,0,0,0.1502,0.3001,0.5193,0.056,2.0507,0
2004/3/4 19:45,0,0,0,0.1434,0.1015,0.5538,0.0078,2.4283,0
2004/3/4 20:00,0,0,0,0.1431,0.31,0.5034,0.053,2.1764,0
2004/3/4 20:15,0,0,0,0.1433,0.2992,0.4654,0.0078,2.0125,0
2004/3/4 20:30,0,0,0,0.1483,0.1047,0.1992,0.0537,2.507,0
2004/3/4 20:45,0,0,0,0.1479,0.3069,0.1997,0.0078,2.0857,0
2004/3/4 21:00,0,0,0,0.1499,0.185,0.1977,0.0539,1.998,0
2004/3/4 21:15,0,0,0,0.1453,0.184,0.1979,0.0084,2.1272,0
2004/3/4 21:30,0,0,0,0.4457,0.293,0.1971,0.0494,1.949,0
2004/3/4 21:45,0,0,0,0.1463,0.2284,0.2006,0.0078,2.0881,0
2004/3/4 22:00,0,0,0,0.1508,0.1865,0.2003,0.0508,2.1986,0
2004/3/4 22:15,0.3247,0,0,0.2606,0.2949,0.2004,0.0078,2.1571,0
2004/3/4 22:30,1.457,0,0,2.4899,0.2205,0.2,0.0576,2.2156,0
2004/3/4 22:45,1.4617,0,0,0.0246,0.193,0.5033,0.0079,2.4044,0
2004/3/4 23:00,1.455,0,0,0.0773,0.2896,0.51,0.0544,2.3694,0
2004/3/4 23:15,1.4489,0,0,0.6196,0.2068,0.5347,0.0508,2.6248,0
2004/3/4 23:30,1.4485,0,0,0.1428,0.1928,0.5387,0.0078,2.6839,0
2004/3/4 23:45,1.4412,0,0,0.1475,0.2916,0.2678,0.0517,2.6768,0
2004/3/5 0:00,1.4531,0,0,0.1485,0.1742,0.1532,0.0078,2.6497,0
2004/3/5 0:15,1.4736,0,0,0.1503,0.2019,0.1557,0.058,2.6371,0
2004/3/5 0:30,1.4913,0,0,0.1526,0.2912,0.1574,0.0078,2.6202,0
2004/3/5 0:45,1.4645,0,0,0.1449,0.1669,0.1541,0.0501,1.5168,0
2004/3/5 1:00,1.3395,0,0,0.1522,0.0592,0.1548,0.0078,0.2978,0
2004/3/5 1:15,0,0,0,0.1469,0.3069,0.1551,0.0518,0.323,0
2004/3/5 1:30,0.9006,0,0,0.1509,0.2245,0.1567,0.0572,0.3126,0
2004/3/5 1:45,1.476,0,0,0.1503,0.1125,0.1554,0.0078,0.2953,0
2004/3/5 2:00,0.8016,0,0,0.1518,0.2982,0.1575,0.0543,0.3195,0
2004/3/5 2:15,0,0,0,0.1475,0.2016,0.1575,0.0079,0.3273,0